GW6780 Weather Reports


Display with metric or nautical units.
time (UTC)temp
F
wind
direction
speed
MPH
gust
MPH
rain 1hr
in
rain 24hr
in
rain mn
in
humidity
%
barometer
mb
20260505212131 53 28 2.0 5.0 0.87 1.09 1.09 88 1004.6
20260505211630 53 350 2.0 9.0 0.87 1.07 1.06 88 1004.8
20260505211130 53 276 3.0 9.0 0.84 1.05 1.05 88 1004.9
20260505210630 53 238 5.0 12.0 0.83 1.03 1.02 88 1005.2
20260505210130 53 240 6.0 12.0 0.80 1.01 1.00 88 1005.3
20260505205630 53 232 6.0 12.0 0.79 0.99 0.98 88 1005.0
20260505205132 53 268 6.0 12.0 0.77 0.98 0.98 88 1005.0
20260505204630 52 246 6.0 16.0 0.76 0.97 0.96 87 1004.9
20260505204130 52 277 6.0 16.0 0.76 0.95 0.94 87 1005.1
20260505202630 57 229 5.0 17.0 0.33 0.36 0.32 87 1005.2
20260505202130 57 217 3.0 13.0 0.19 0.22 0.21 87 1004.4
20260505201629 57 331 5.0 13.0 0.17 0.20 0.20 87 1003.7
20260505201131 57 9 6.0 15.0 0.17 0.20 0.20 87 1003.7
20260505195130 57 74 8.0 16.0 0.17 0.20 0.20 87 1002.9
20260505193603 57 51 3.0 11.0 0.13 0.17 0.17 86 1003.3
20260505192103 57 331 3.0 9.0 0.00 0.03 0.03 86 1003.5
20260505191102 57 346 3.0 9.0 0.00 0.03 0.03 86 1003.3
20260505185603 58 78 5.0 10.0 0.01 0.03 0.03 86 1003.0
20260505184603 58 98 6.0 13.0 0.01 0.03 0.03 86 1002.9
20260505184102 58 56 6.0 13.0 0.01 0.03 0.03 86 1003.0
20260505183102 58 62 5.0 13.0 0.02 0.03 0.03 85 1002.9
20260505182603 58 42 5.0 11.0 0.02 0.03 0.03 85 1003.0
20260505182102 58 53 5.0 12.0 0.02 0.03 0.03 85 1003.3
20260505181604 58 88 5.0 12.0 0.02 0.03 0.03 85 1003.4
20260505180603 58 61 5.0 11.0 0.02 0.03 0.03 85 1003.5
20260505175603 58 60 5.0 11.0 0.01 0.02 0.02 84 1003.3
20260505175101 58 44 6.0 12.0 0.01 0.02 0.02 84 1003.4
20260505174603 58 75 6.0 12.0 0.01 0.02 0.02 84 1003.6
20260505173103 59 31 3.0 12.0 0.00 0.02 0.02 83 1003.8
20260505172604 58 51 2.0 8.0 0.00 0.02 0.02 83 1004.0
20260505172102 59 33 2.0 4.0 0.00 0.02 0.02 83 1004.2
20260505171604 59 277 3.0 6.0 0.00 0.02 0.02 83 1004.4
20260505171102 59 292 2.0 6.0 0.00 0.02 0.02 83 1004.4
20260505165603 59 326 1.0 5.0 0.00 0.02 0.02 83 1004.2
20260505165102 59 326 3.0 9.0 0.00 0.02 0.02 83 1004.0
20260505164603 59 15 4.0 9.0 0.00 0.02 0.02 83 1004.0
20260505164102 59 0 3.0 9.0 0.00 0.02 0.02 83 1003.9
20260505163603 59 317 2.0 9.0 0.00 0.02 0.02 83 1003.9
20260505163102 59 15 3.0 8.0 0.00 0.02 0.02 83 1003.9
20260505162603 60 49 4.0 8.0 0.00 0.02 0.02 83 1004.0
20260505161603 60 65 3.0 8.0 0.00 0.02 0.02 82 1004.3
20260505160603 60 46 1.0 4.0 0.00 0.02 0.02 82 1004.6
20260505153102 61 37 4.0 10.0 0.01 0.02 0.02 80 1004.7
20260505152102 60 0 4.0 9.0 0.01 0.02 0.02 81 1004.8
20260505151604 60 55 4.0 10.0 0.01 0.02 0.02 81 1004.8
20260505140603 64 17 4.0 10.0 0.00 0.01 0.01 78 1005.3
20260505125030 64 76 8.0 16.0 0.00 0.01 0.01 82 1005.3
20260505124532 64 30 7.0 15.0 0.00 0.01 0.01 81 1005.3
20260505124030 63 342 5.0 14.0 0.00 0.01 0.01 82 1005.6
20260505123531 62 5 5.0 12.0 0.00 0.01 0.01 82 1005.7
20260505123030 62 348 6.0 14.0 0.00 0.01 0.01 81 1005.7
20260505122531 62 5 6.0 14.0 0.00 0.01 0.01 80 1005.6
20260505121531 63 323 4.0 12.0 0.00 0.01 0.01 80 1006.0
20260505121029 63 313 5.0 12.0 0.00 0.01 0.01 79 1006.0
20260505120531 64 355 6.0 12.0 0.00 0.01 0.01 78 1006.0
20260505120030 64 344 5.0 10.0 0.00 0.01 0.01 77 1006.1
20260505115531 64 32 5.0 10.0 0.00 0.01 0.01 75 1006.0
20260505115030 65 340 4.0 10.0 0.00 0.01 0.01 74 1006.0
20260505114530 65 15 4.0 12.0 0.00 0.01 0.01 73 1005.8
20260505114031 66 35 4.0 12.0 0.00 0.01 0.01 72 1005.7
20260505113532 66 0 5.0 11.0 0.00 0.01 0.01 71 1005.8
20260505113031 66 328 5.0 11.0 0.00 0.01 0.01 69 1005.8
20260505112531 67 0 4.0 11.0 0.00 0.01 0.01 67 1005.8
20260505111531 67 44 4.0 9.0 0.00 0.01 0.01 66 1005.9
20260505111030 67 54 4.0 9.0 0.00 0.01 0.01 66 1005.9
20260505110531 67 61 4.0 9.0 0.00 0.01 0.01 63 1006.0
20260505102029 67 44 4.0 10.0 0.00 0.01 0.01 68 1006.4
20260505101030 67 342 5.0 10.0 0.00 0.01 0.01 68 1006.3
20260505100531 67 80 4.0 10.0 0.00 0.01 0.01 66 1006.3
20260505100030 67 12 5.0 10.0 0.00 0.01 0.01 69 1006.3
20260505095529 66 76 5.0 10.0 0.00 0.01 0.01 68 1006.4
20260505095031 66 29 5.0 11.0 0.00 0.01 0.01 68 1006.4
20260505094531 66 96 5.0 11.0 0.00 0.01 0.01 67 1006.5
20260505094030 66 68 4.0 12.0 0.00 0.01 0.01 68 1006.5
20260505093531 67 42 4.0 12.0 0.00 0.01 0.01 71 1006.6
20260505093031 66 80 5.0 10.0 0.00 0.01 0.01 70 1006.6
20260505092530 66 67 4.0 10.0 0.00 0.01 0.01 71 1006.7
20260505092030 65 46 4.0 9.0 0.00 0.01 0.01 75 1006.7
20260505091530 64 51 4.0 9.0 0.00 0.01 0.01 74 1006.7
20260505091030 63 24 4.0 9.0 0.00 0.01 0.01 75 1006.8
20260505090529 63 30 4.0 8.0 0.00 0.01 0.01 76 1006.9
20260505085530 62 62 5.0 9.0 0.00 0.01 0.01 77 1006.9
20260505085030 62 55 4.0 7.0 0.00 0.01 0.01 77 1006.9
20260505084538 62 80 3.0 7.0 0.00 0.01 0.01 77 1006.9
20260505083531 62 67 3.0 8.0 0.00 0.01 0.01 78 1006.9
20260505082529 61 80 2.0 6.0 0.00 0.01 0.01 82 1006.9
20260505082030 61 71 2.0 6.0 0.00 0.01 0.01 84 1007.0
20260505081030 59 78 1.0 7.0 0.00 0.01 0.01 84 1007.1
20260505080531 59 76 1.0 3.0 0.00 0.01 0.01 85 1007.2
20260505080030 58 163 1.0 4.0 0.00 0.01 0.01 85 1007.2
20260505075530 58 162 2.0 4.0 0.00 0.01 0.01 86 1007.3
20260505075031 58 117 1.0 5.0 0.00 0.01 0.01 86 1007.3
20260505074530 57 169 1.0 5.0 0.00 0.01 0.01 87 1007.3
20260505074030 56 120 2.0 4.0 0.00 0.01 0.01 87 1007.4
20260505073530 56 112 1.0 4.0 0.00 0.01 0.01 87 1007.4
20260505072530 56 252 1.0 3.0 0.00 0.01 0.01 88 1007.4
20260505072030 56 253 1.0 3.0 0.00 0.01 0.01 88 1007.4
20260505071530 56 253 1.0 2.0 0.00 0.01 0.01 88 1007.5
20260505071029 56 253 1.0 3.0 0.00 0.01 0.01 88 1007.6
20260505070029 55 261 0.0 1.0 0.00 0.01 0.01 88 1007.6
20260505065531 55 261 0.0 3.0 0.00 0.01 0.01 88 1007.6
20260505065030 55 261 0.0 3.0 0.00 0.01 0.01 88 1007.6
20260505064030 55 275 0.0 1.0 0.01 0.01 0.01 88 1007.5
20260505063032 54 275 0.0 2.0 0.01 0.01 0.01 88 1007.6
20260505062033 54 302 0.0 1.0 0.01 0.01 0.01 88 1007.6
20260505061531 54 320 0.0 2.0 0.01 0.01 0.01 88 1007.7
20260505061031 54 320 0.0 2.0 0.01 0.01 0.01 88 1007.6
20260505060031 54 320 0.0 3.0 0.01 0.01 0.01 88 1007.5
20260505054530 54 323 0.0 2.0 0.00 0.00 0.00 87 1007.7
20260505053531 53 324 0.0 0.0 0.00 0.00 0.00 87 1007.7
20260505053032 54 325 0.0 0.0 0.00 0.00 0.00 87 1007.7
20260505052530 53 325 0.0 1.0 0.00 0.00 0.00 87 1007.8
20260505052031 53 325 1.0 3.0 0.00 0.00 0.00 87 1007.7
20260505051530 53 325 1.0 3.0 0.00 0.00 0.00 87 1007.7
20260505051031 53 327 0.0 2.0 0.00 0.00 0.00 87 1007.7
20260505050530 53 327 0.0 1.0 0.00 0.00 0.00 87 1007.7
20260505041530 52 281 0.0 0.0 0.00 0.00 0.00 87 1007.4
20260505041032 52 281 0.0 1.0 0.00 0.00 0.00 87 1007.3
20260505040530 52 281 0.0 1.0 0.00 0.00 0.00 87 1007.4
20260505040031 52 281 0.0 1.0 0.00 0.00 0.00 87 1007.4
20260505035531 51 281 0.0 2.0 0.00 0.00 0.00 87 1007.4
20260505035031 51 281 0.0 2.0 0.00 0.00 0.00 87 1007.4
20260505034530 51 281 0.0 2.0 0.00 0.00 0.00 87 1007.4
20260505033530 51 280 1.0 2.0 0.00 0.00 0.00 87 1007.4
20260505033032 51 287 0.0 2.0 0.00 0.00 0.00 86 1007.6
20260505032030 52 288 0.0 2.0 0.00 0.00 0.00 87 1007.6
20260505031529 52 288 0.0 2.0 0.00 0.00 0.00 87 1007.7
20260505031032 52 287 0.0 1.0 0.00 0.00 0.00 87 1007.7
20260505030030 51 287 0.0 1.0 0.00 0.00 0.00 87 1007.8
20260505025529 51 288 0.0 0.0 0.00 0.00 0.00 86 1007.8
20260505025030 51 288 0.0 3.0 0.00 0.00 0.00 86 1007.8
20260505024530 51 288 1.0 3.0 0.00 0.00 0.00 86 1008.2
20260505024031 51 288 1.0 5.0 0.00 0.00 0.00 86 1008.2
20260505023530 51 281 0.0 5.0 0.00 0.00 0.00 86 1008.2
20260505023031 51 275 0.0 0.0 0.00 0.00 0.00 85 1008.3
20260505022031 52 276 0.0 0.0 0.00 0.00 0.00 85 1008.4
20260505020530 52 268 1.0 2.0 0.00 0.00 0.00 85 1008.4
20260505020031 52 297 0.0 2.0 0.00 0.00 0.00 85 1008.4
20260505015530 53 297 0.0 2.0 0.00 0.00 0.00 85 1008.4
20260505014530 53 297 0.0 1.0 0.00 0.00 0.00 85 1008.4
20260505014031 53 297 0.0 1.0 0.00 0.00 0.00 85 1008.4
20260505013031 53 297 0.0 0.0 0.00 0.00 0.00 84 1008.6
20260505012530 53 297 0.0 0.0 0.00 0.00 0.00 84 1008.7
20260505011531 53 297 0.0 2.0 0.00 0.00 0.00 83 1008.7
20260505011031 54 297 0.0 1.0 0.00 0.00 0.00 83 1008.8
20260505010530 55 297 0.0 1.0 0.00 0.00 0.00 83 1008.8
20260505010032 55 297 0.0 1.0 0.00 0.00 0.00 83 1008.8
20260505005530 55 297 0.0 1.0 0.00 0.00 0.00 84 1008.9
20260505005031 55 297 0.0 1.0 0.00 0.00 0.00 83 1008.9
20260505004530 55 297 0.0 1.0 0.00 0.00 0.00 83 1008.9
20260505004032 55 297 0.0 3.0 0.00 0.00 0.00 83 1008.9
20260505003531 56 297 1.0 3.0 0.00 0.00 0.00 83 1008.9
20260505003032 56 297 1.0 3.0 0.00 0.00 0.00 83 1009.0
20260505002530 56 298 1.0 3.0 0.00 0.00 0.00 82 1009.0
20260505002031 56 298 0.0 3.0 0.00 0.00 0.00 82 1009.0
20260505001530 56 298 0.0 2.0 0.00 0.00 0.00 82 1009.1
20260505001032 56 298 0.0 2.0 0.00 0.00 0.00 81 1009.1
20260504235530 57 298 0.0 2.0 0.00 0.00 0.00 81 1009.1
20260504235031 57 298 0.0 2.0 0.00 0.00 0.00 81 1009.2
20260504234530 57 298 0.0 0.0 0.00 0.00 0.00 81 1009.2
20260504234031 57 298 0.0 0.0 0.00 0.00 0.00 81 1009.3
20260504233529 57 298 0.0 0.0 0.00 0.00 0.00 81 1009.3
20260504232529 57 298 0.0 0.0 0.00 0.00 0.00 80 1009.4
20260504232031 57 298 0.0 0.0 0.00 0.00 0.00 80 1009.4
20260504230531 56 298 0.0 0.0 0.00 0.00 0.00 81 1009.4
20260504230031 57 298 0.0 2.0 0.00 0.00 0.00 81 1009.5
20260504225530 56 298 0.0 2.0 0.00 0.00 0.00 81 1009.5
20260504225031 57 298 0.0 1.0 0.00 0.00 0.00 80 1009.6
20260504224530 57 298 0.0 2.0 0.00 0.00 0.00 80 1009.5
20260504223530 57 298 1.0 3.0 0.00 0.00 0.00 80 1009.5
20260504223031 57 298 1.0 2.0 0.00 0.00 0.00 80 1009.5
20260504222530 57 298 1.0 3.0 0.00 0.00 0.00 80 1009.5
20260504222032 57 298 1.0 3.0 0.00 0.00 0.00 79 1009.5
20260504221530 58 296 1.0 3.0 0.00 0.00 0.00 79 1009.6
20260504221031 58 295 2.0 4.0 0.00 0.00 0.00 79 1009.7
20260504220530 58 295 3.0 7.0 0.00 0.00 0.00 78 1009.7
20260504220031 58 289 5.0 8.0 0.00 0.00 0.00 79 1009.8
20260504215530 58 281 4.0 8.0 0.00 0.00 0.00 79 1009.7
20260504214025 58 154 1.0 2.0 0.00 0.00 0.00 78 1009.4
20260504213525 58 154 2.0 3.0 0.00 0.00 0.00 78 1009.5
20260504213005 58 154 1.0 3.0 0.00 0.00 0.00 79 1009.6